Torna al catalogo

STARLINK-30826

AttivoComunicazioniVLEO
NORAD 58188·PAYLOAD·🇺🇸 United States

Lanciato Oct 30, 2023 da Cape Canaveral Space Force Station

Loading…

Prossimi Passaggi (prossime 24 ore)

TLE

AggiornatoSource: CelesTrak SupGP

Epoca: Sep 14, 2026, 21:30 UTC

1 58188C 23167P   26257.89631944 -.00034348  00000+0 -12443-2 0  2571
2 58188  43.0026 154.8468 0001516 269.5004  30.3755 15.27590147    17

Traccia STARLINK-30826 in tempo reale con AllMySat

Download on the App Store